Regional Weather Roundup
Issued by NWS Burlington, VT

Home | Current Version | Previous Version | Text Only | Print | Product List | Glossary On
Versions: 1 2 3 4 5 6 7 8 9 10 11 12 13 14 15 16 17 18 19 20 21 22 23 24 25 26 27 28 29 30 31 32 33 34 35 36 37 38 39 40 41 42 43 44 45 46 47 48 49 50
000
ASUS41 KBTV 010130
RWRBTV
VERMONT REGIONAL WEATHER ROUNDUP
NATIONAL WEATHER SERVICE BURLINGTON VT
900 PM EDT TUE JUN 30 2015

NOTE: "FAIR" INDICATES FEW OR NO CLOUDS BELOW 12,000 FEET WITH NO
SIGNIFICANT WEATHER AND/OR OBSTRUCTIONS TO VISIBILITY.

* THESE REPORTS ARE NOT UNDER NWS QUALITY CONTROL AND/OR DO NOT
  REPORT WEATHER SUCH AS PRECIPITATION AND FOG.

VTZ001>019-010200-
_____VERMONT_____


CITY           SKY/WX    TMP DP  RH WIND       PRES   REMARKS
BURLINGTON     CLOUDY    65  61  87 S5        29.88F
MONTPELIER     LGT RAIN  61  59  93 CALM      29.98S
MORRISVILLE    LGT RAIN  63  59  87 CALM      29.94F
ST. JOHNSBURY*   N/A     64  61  90 MISG      29.93R
RUTLAND*       CLOUDY    63  57  82 S5        29.92S
SPRINGFIELD    MOCLDY    63  62  97 CALM      29.94S
BENNINGTON     PTCLDY    71  58  63 S13G25    29.90R
SUTTON*          N/A     59 N/A N/A MISG        N/A
GALLUP MILLS*    N/A     61 N/A N/A MISG        N/A
MT. MANSFIELD*   N/A     54 N/A N/A S15G29      N/A

_____LAKE CHAMPLAIN_____


CITY           SKY/WX    TMP DP  RH WIND       PRES   REMARKS
BURTON ISLAND*   N/A     64  63  94 SE8         N/A
COLCHESTER RF*   N/A     64  61  88 S12         N/A
DIAMOND ISL*     N/A    N/A N/A N/A SE1         N/A

$$

NYZ007-026>031-035-052-083-010200-
_____NORTHERN NEW YORK_____


CITY           SKY/WX    TMP DP  RH WIND       PRES   REMARKS
PLATTSBURGH    MOCLDY    62  59  90 SE5       29.87F
SARANAC LAKE   CLOUDY    62  58  86 CALM      29.87S
MASSENA        CLOUDY    63  59  87 NE7       29.82F
OGDENSBURG*    PTCLDY    63  61  94 E3        29.80F
POTSDAM*       CLEAR     63  63 100 CALM      29.81S
STARK FALLS*     N/A     64 N/A N/A SE14        N/A
WATERTOWN      MOCLDY    67  63  87 N3        29.77F
FT DRUM        MOCLDY    65  63  92 SE12      29.78F
ALBANY         MOCLDY    67  63  87 N5        29.87F
GLENS FALLS    CLOUDY    63  61  93 N3        29.88S

$$
NHZ002-005-011-010200-
_____NEW HAMPSHIRE_____


CITY           SKY/WX    TMP DP  RH WIND       PRES   REMARKS
LEBANON        CLOUDY    65  62  90 CALM      29.93R
KEENE          MOCLDY    66  61  82 CALM      29.94S
MT WASHINGTON  CLOUDY    46  45  93 S28         N/A
PLYMOUTH       CLOUDY    65  65 100 CALM      29.96R
WHITEFIELD     CLOUDY    65  62  90 CALM      29.95F

$$

_____REGIONAL QUEBEC LOCATIONS_____


CITY           SKY/WX    TMP DP  RH WIND       PRES   REMARKS
MONTREAL       CLOUDY    64  61  88 SE9       29.86F
QUEBEC CITY    CLOUDY    70  64  83 NW2       29.89R
SHERBROOKE     CLOUDY    66  57  72 SW5       29.93S

_____REGIONAL ONTARIO LOCATIONS_____


CITY           SKY/WX    TMP DP  RH WIND       PRES   REMARKS
OTTAWA         MOCLDY    64  59  82 SE6       29.83R

______KEY______
VSB  - VISIBILITY IN MILES
WCI  - WIND CHILL INDEX
HX   - HEAT INDEX
$$
NNNN



USA.gov is the U.S. government's official web portal to all federal, state and local government web resources and services.